contact:dominique.lefevre@mio.osupytheas.fr, maurice.libes@osupytheas.fr, didier.mallarino@osupytheas.fr
Project:EMSO http://www.emso-fr.org/EMSO-France
Depth: 2436.0 m
Title:EMSO Ligure Ouest : Data MII capteur AQUADOPP
Date,Latitude,Longitude,X_East,Y_North,Z_Up,Amplitude_X,Amplitude_Y,Amplitude_Z,Batterie,SoundSpeed,Heading,Pitch,Roll,Pressure,TIS,Speed,Direction
, degrees North, degrees East, m.s-1, m.s-1,m.s-1, 1, 1, 1, Volt, m.s-1, degree, degree, degree, dbar, degree_C, m.s-1, degree
2021-06-17T00:04:03,42.805,6.029,0.02,-0.018,-0.011,104.0,103.0,102.0,13.4,1505.2,328.7,-0.7,1.8,2470.737,13.28,0.026,132.0
2021-06-17T00:07:03,42.805,6.029,0.011,-0.002,0.007,104.0,104.0,102.0,13.4,1505.2,329.6,-0.8,1.8,2470.682,13.28,0.011,100.3
2021-06-17T00:10:03,42.805,6.029,0.028,-0.01,0.041,104.0,103.0,102.0,13.4,1505.2,328.4,-0.7,1.8,2470.708,13.28,0.029,109.6
2021-06-17T00:13:03,42.805,6.029,0.003,-0.013,0.0,104.0,103.0,102.0,13.4,1505.2,324.8,-0.8,1.8,2470.721,13.28,0.013,167.0
2021-06-17T00:16:03,42.805,6.029,0.022,-0.021,0.005,105.0,105.0,101.0,13.4,1505.2,327.8,-0.7,1.9,2470.681,13.28,0.03,133.7
2021-06-17T00:19:03,42.805,6.029,0.03,-0.021,-0.026,104.0,105.0,103.0,13.4,1505.2,324.5,-0.7,1.8,2470.71,13.28,0.036,125.0
2021-06-17T00:22:03,42.805,6.029,0.018,-0.007,0.008,104.0,102.0,101.0,13.4,1505.2,327.2,-0.7,1.8,2470.708,13.28,0.019,111.2
2021-06-17T00:25:03,42.805,6.029,0.005,-0.015,0.006,105.0,104.0,102.0,13.4,1505.2,329.4,-0.8,1.8,2470.732,13.28,0.015,161.6
2021-06-17T00:28:03,42.805,6.029,0.021,-0.025,0.0,104.0,104.0,102.0,13.4,1505.2,326.8,-0.7,1.8,2470.744,13.28,0.032,140.0
2021-06-17T00:31:03,42.805,6.029,0.036,-0.014,-0.015,103.0,103.0,102.0,13.4,1505.2,327.4,-0.8,1.8,2470.697,13.28,0.038,111.2
2021-06-17T00:34:03,42.805,6.029,0.011,0.0,-0.004,104.0,104.0,102.0,13.4,1505.2,325.8,-0.7,1.8,2470.708,13.28,0.011,90.0
2021-06-17T00:37:03,42.805,6.029,0.013,-0.024,0.021,105.0,104.0,102.0,13.4,1505.2,326.9,-0.7,1.8,2470.706,13.28,0.027,151.6
2021-06-17T00:40:03,42.805,6.029,0.016,-0.008,-0.005,103.0,103.0,102.0,13.4,1505.2,325.3,-0.7,1.8,2470.7,13.28,0.017,116.6
2021-06-17T00:43:03,42.805,6.029,0.017,-0.012,0.007,103.0,102.0,102.0,13.3,1505.2,326.8,-0.7,1.8,2470.655,13.28,0.02,125.2
2021-06-17T00:46:03,42.805,6.029,0.036,-0.033,0.01,103.0,104.0,103.0,13.3,1505.2,325.7,-0.7,1.8,2470.714,13.28,0.048,132.5
2021-06-17T00:49:03,42.805,6.029,0.015,-0.015,-0.01,104.0,102.0,101.0,13.4,1505.2,327.9,-0.7,1.8,2470.652,13.28,0.021,135.0
2021-06-17T00:52:03,42.805,6.029,0.028,-0.023,-0.01,104.0,103.0,104.0,13.4,1505.2,328.1,-0.7,1.8,2470.695,13.28,0.036,129.4
2021-06-17T00:55:03,42.805,6.029,0.016,-0.021,-0.015,104.0,104.0,103.0,13.3,1505.2,326.4,-0.7,1.8,2470.708,13.28,0.026,142.7
2021-06-17T00:58:03,42.805,6.029,0.019,-0.014,-0.011,104.0,104.0,102.0,13.4,1505.2,330.0,-0.7,1.8,2470.698,13.28,0.023,126.4
2021-06-17T01:04:03,42.805,6.029,0.027,-0.018,-0.007,103.0,106.0,102.0,13.4,1505.2,328.2,-0.8,1.8,2470.701,13.28,0.032,123.7
2021-06-17T01:07:03,42.805,6.029,0.023,-0.014,0.017,104.0,104.0,103.0,13.4,1505.2,326.5,-0.8,1.8,2470.69,13.28,0.026,121.3
2021-06-17T01:10:03,42.805,6.029,0.038,-0.031,-0.02,105.0,105.0,101.0,13.4,1505.2,324.6,-0.8,1.8,2470.654,13.28,0.049,129.2
2021-06-17T01:13:03,42.805,6.029,0.029,-0.016,0.002,104.0,103.0,101.0,13.4,1505.2,325.9,-0.7,1.8,2470.652,13.28,0.033,118.9
2021-06-17T01:16:03,42.805,6.029,0.029,-0.023,-0.004,104.0,103.0,102.0,13.4,1505.2,329.8,-0.7,1.8,2470.712,13.28,0.037,128.4
2021-06-17T01:19:03,42.805,6.029,0.034,-0.025,0.008,105.0,103.0,102.0,13.3,1505.2,328.1,-0.8,1.8,2470.666,13.28,0.042,126.3
2021-06-17T01:22:03,42.805,6.029,0.022,-0.024,0.003,103.0,104.0,101.0,13.4,1505.2,326.3,-0.8,1.9,2470.64,13.28,0.032,137.5
2021-06-17T01:25:03,42.805,6.029,0.024,-0.026,0.009,104.0,104.0,102.0,13.3,1505.2,329.9,-0.7,1.8,2470.662,13.28,0.035,137.3
2021-06-17T01:28:03,42.805,6.029,0.016,-0.041,0.005,105.0,104.0,103.0,13.4,1505.2,328.5,-0.7,1.8,2470.65,13.28,0.044,158.7
2021-06-17T01:31:03,42.805,6.029,0.036,-0.023,-0.014,104.0,104.0,101.0,13.4,1505.2,326.1,-0.8,1.8,2470.705,13.28,0.042,122.6
2021-06-17T01:34:03,42.805,6.029,0.041,-0.011,0.018,104.0,103.0,103.0,13.3,1505.2,325.1,-0.7,1.8,2470.65,13.28,0.042,105.0
2021-06-17T01:37:03,42.805,6.029,0.035,-0.021,-0.002,103.0,105.0,103.0,13.3,1505.2,325.6,-0.8,1.8,2470.665,13.28,0.04,121.0
2021-06-17T01:40:03,42.805,6.029,0.024,-0.012,0.026,104.0,103.0,103.0,13.4,1505.2,324.8,-0.8,1.8,2470.634,13.28,0.026,116.6
2021-06-17T01:43:03,42.805,6.029,0.045,-0.023,-0.026,103.0,103.0,103.0,13.4,1505.2,328.1,-0.8,1.8,2470.629,13.28,0.05,117.1
2021-06-17T01:46:03,42.805,6.029,0.031,-0.018,0.009,104.0,104.0,102.0,13.4,1505.2,326.8,-0.7,1.8,2470.691,13.28,0.035,120.1
2021-06-17T01:49:03,42.805,6.029,0.032,-0.032,-0.009,104.0,103.0,102.0,13.4,1505.2,326.7,-0.7,1.9,2470.627,13.28,0.045,135.0
2021-06-17T01:52:03,42.805,6.029,0.017,-0.024,0.001,104.0,104.0,102.0,13.4,1505.2,325.8,-0.7,1.8,2470.637,13.28,0.029,144.7
2021-06-17T01:55:03,42.805,6.029,0.024,-0.033,0.011,104.0,103.0,103.0,13.3,1505.2,326.9,-0.7,1.9,2470.669,13.28,0.04,144.0
2021-06-17T01:58:03,42.805,6.029,0.042,-0.022,-0.006,104.0,104.0,102.0,13.4,1505.2,326.4,-0.7,1.8,2470.649,13.28,0.047,117.6
2021-06-17T02:04:03,42.805,6.029,0.053,-0.018,0.009,105.0,104.0,101.0,13.4,1505.2,325.2,-0.7,1.8,2470.672,13.28,0.055,108.8
2021-06-17T02:07:03,42.805,6.029,0.04,-0.032,-0.035,103.0,103.0,102.0,13.4,1505.2,328.7,-0.7,1.8,2470.638,13.28,0.051,128.7
2021-06-17T02:10:03,42.805,6.029,0.03,-0.026,0.011,104.0,103.0,101.0,13.4,1505.2,327.6,-0.8,1.8,2470.679,13.28,0.039,130.9
2021-06-17T02:13:03,42.805,6.029,0.057,-0.002,0.003,103.0,104.0,101.0,13.4,1505.2,326.0,-0.7,1.8,2470.646,13.28,0.057,92.0
2021-06-17T02:16:03,42.805,6.029,0.028,-0.035,0.02,104.0,104.0,101.0,13.3,1505.2,325.6,-0.7,1.8,2470.662,13.28,0.044,141.3
2021-06-17T02:19:03,42.805,6.029,0.02,-0.016,-0.003,104.0,103.0,102.0,13.4,1505.2,326.1,-0.7,1.8,2470.639,13.28,0.025,128.7
2021-06-17T02:22:03,42.805,6.029,0.033,-0.017,0.013,105.0,101.0,102.0,13.4,1505.2,328.1,-0.8,1.8,2470.644,13.28,0.037,117.3
2021-06-17T02:25:03,42.805,6.029,0.033,-0.047,-0.002,104.0,104.0,103.0,13.3,1505.2,326.0,-0.7,1.8,2470.641,13.28,0.057,144.9
2021-06-17T02:28:03,42.805,6.029,0.032,-0.029,0.034,104.0,102.0,102.0,13.4,1505.2,328.7,-0.7,1.8,2470.659,13.28,0.043,132.2
2021-06-17T02:31:03,42.805,6.029,0.025,-0.024,0.001,104.0,104.0,101.0,13.3,1505.2,326.5,-0.8,1.8,2470.7,13.28,0.034,133.8
2021-06-17T02:34:03,42.805,6.029,0.037,-0.008,0.009,103.0,104.0,102.0,13.4,1505.2,327.2,-0.7,1.8,2470.673,13.28,0.037,102.2
2021-06-17T02:37:03,42.805,6.029,0.031,-0.03,0.005,104.0,104.0,103.0,13.4,1505.2,328.4,-0.7,1.9,2470.655,13.28,0.043,134.1
2021-06-17T02:40:03,42.805,6.029,0.037,-0.018,-0.036,103.0,104.0,102.0,13.4,1505.2,324.7,-0.8,1.8,2470.636,13.28,0.041,115.9
2021-06-17T02:43:03,42.805,6.029,0.03,-0.03,-0.014,103.0,103.0,103.0,13.4,1505.2,325.7,-0.8,1.9,2470.628,13.28,0.042,135.0
2021-06-17T02:46:03,42.805,6.029,0.032,-0.02,0.001,104.0,104.0,102.0,13.3,1505.2,329.7,-0.8,1.8,2470.676,13.28,0.037,122.0
2021-06-17T02:49:03,42.805,6.029,0.029,-0.021,-0.009,103.0,103.0,102.0,13.3,1505.2,326.6,-0.7,1.8,2470.614,13.28,0.035,125.9
2021-06-17T02:52:03,42.805,6.029,0.049,-0.045,-0.003,103.0,103.0,103.0,13.4,1505.2,328.5,-0.7,1.8,2470.668,13.28,0.066,132.6
2021-06-17T02:55:03,42.805,6.029,0.049,-0.04,0.008,102.0,105.0,101.0,13.3,1505.2,324.7,-0.8,1.8,2470.663,13.28,0.063,129.2
2021-06-17T02:58:03,42.805,6.029,0.036,-0.021,-0.003,104.0,104.0,102.0,13.4,1505.2,328.1,-0.7,1.8,2470.633,13.28,0.041,120.3
2021-06-17T03:04:03,42.805,6.029,0.031,-0.018,-0.007,103.0,104.0,102.0,13.3,1505.2,325.0,-0.8,1.8,2470.649,13.28,0.035,120.1
2021-06-17T03:07:03,42.805,6.029,0.049,-0.029,-0.005,104.0,104.0,102.0,13.4,1505.2,325.7,-0.8,1.8,2470.629,13.28,0.056,120.6
2021-06-17T03:10:03,42.805,6.029,0.035,-0.019,0.001,103.0,103.0,102.0,13.3,1505.2,325.2,-0.8,1.8,2470.633,13.28,0.039,118.5
2021-06-17T03:13:03,42.805,6.029,0.019,-0.015,-0.022,102.0,103.0,102.0,13.4,1505.2,329.9,-0.7,1.8,2470.644,13.28,0.024,128.3
2021-06-17T03:16:03,42.805,6.029,0.049,-0.02,-0.007,104.0,103.0,102.0,13.3,1505.2,325.2,-0.8,1.8,2470.635,13.28,0.052,112.2
2021-06-17T03:19:03,42.805,6.029,0.033,-0.034,-0.01,103.0,103.0,102.0,13.4,1505.2,327.9,-0.8,1.8,2470.635,13.28,0.047,135.9
2021-06-17T03:22:03,42.805,6.029,0.014,-0.024,-0.008,103.0,102.0,102.0,13.4,1505.2,325.7,-0.8,1.8,2470.645,13.28,0.027,149.7
2021-06-17T03:25:03,42.805,6.029,0.033,-0.017,-0.041,103.0,104.0,102.0,13.4,1505.2,326.4,-0.8,1.8,2470.655,13.28,0.037,117.3
2021-06-17T03:28:03,42.805,6.029,0.029,-0.029,-0.003,104.0,103.0,102.0,13.4,1505.2,325.4,-0.8,1.9,2470.634,13.28,0.041,135.0
2021-06-17T03:31:03,42.805,6.029,0.01,-0.017,-0.011,104.0,104.0,102.0,13.3,1505.2,325.6,-0.7,1.8,2470.635,13.28,0.019,149.5
2021-06-17T03:34:03,42.805,6.029,0.02,-0.026,-0.001,105.0,103.0,102.0,13.4,1505.2,326.5,-0.8,1.8,2470.653,13.28,0.032,142.4
2021-06-17T03:37:03,42.805,6.029,0.046,-0.027,0.015,104.0,104.0,102.0,13.4,1505.2,329.2,-0.8,1.8,2470.632,13.28,0.053,120.4
2021-06-17T03:40:03,42.805,6.029,0.031,-0.02,-0.005,103.0,103.0,102.0,13.4,1505.2,330.0,-0.8,1.8,2470.604,13.28,0.036,122.8
2021-06-17T03:43:03,42.805,6.029,0.012,-0.021,-0.013,103.0,103.0,102.0,13.4,1505.2,326.8,-0.7,1.8,2470.638,13.28,0.024,150.3
2021-06-17T03:46:03,42.805,6.029,0.049,-0.012,-0.012,104.0,103.0,101.0,13.3,1505.2,328.4,-0.8,1.8,2470.634,13.28,0.05,103.8
2021-06-17T03:49:03,42.805,6.029,0.017,-0.031,0.003,103.0,103.0,101.0,13.3,1505.2,326.1,-0.7,1.8,2470.618,13.28,0.035,151.3
2021-06-17T03:52:03,42.805,6.029,0.041,-0.003,-0.017,103.0,103.0,102.0,13.4,1505.2,324.4,-0.8,1.8,2470.661,13.28,0.041,94.2
2021-06-17T03:55:03,42.805,6.029,0.02,-0.03,-0.016,103.0,104.0,101.0,13.3,1505.2,324.9,-0.8,1.8,2470.596,13.28,0.036,146.3
2021-06-17T03:58:03,42.805,6.029,0.046,-0.023,-0.024,104.0,104.0,102.0,13.3,1505.2,326.0,-0.8,1.8,2470.614,13.28,0.051,116.6
2021-06-17T04:04:03,42.805,6.029,0.023,-0.035,-0.031,104.0,103.0,102.0,13.4,1505.2,327.4,-0.8,1.8,2470.618,13.28,0.041,146.7
2021-06-17T04:07:03,42.805,6.029,0.025,-0.049,0.022,103.0,103.0,102.0,13.4,1505.2,326.9,-0.8,1.8,2470.663,13.28,0.055,153.0
2021-06-17T04:10:03,42.805,6.029,0.022,-0.029,-0.002,104.0,103.0,102.0,13.4,1505.2,326.9,-0.7,1.8,2470.639,13.28,0.036,142.8
2021-06-17T04:13:03,42.805,6.029,0.032,-0.039,-0.002,104.0,103.0,101.0,13.4,1505.2,329.7,-0.8,1.8,2470.666,13.28,0.05,140.6
2021-06-17T04:16:03,42.805,6.029,0.024,-0.027,-0.002,105.0,103.0,102.0,13.4,1505.2,329.0,-0.7,1.8,2470.62,13.28,0.036,138.4
2021-06-17T04:19:03,42.805,6.029,0.023,-0.032,-0.007,104.0,104.0,102.0,13.3,1505.2,328.4,-0.8,1.8,2470.621,13.28,0.039,144.3
2021-06-17T04:22:03,42.805,6.029,-0.001,-0.019,-0.027,105.0,103.0,101.0,13.4,1505.2,328.8,-0.8,1.8,2470.592,13.28,0.019,183.0
2021-06-17T04:25:03,42.805,6.029,0.022,-0.027,0.0,103.0,104.0,102.0,13.3,1505.2,326.5,-0.8,1.8,2470.604,13.28,0.034,140.8
2021-06-17T04:28:03,42.805,6.029,0.024,-0.024,0.0,103.0,104.0,102.0,13.4,1505.2,326.6,-0.7,1.8,2470.589,13.28,0.033,135.0
2021-06-17T04:31:03,42.805,6.029,0.006,-0.04,-0.009,104.0,104.0,101.0,13.4,1505.2,327.3,-0.8,1.8,2470.575,13.28,0.04,171.5
2021-06-17T04:34:03,42.805,6.029,0.016,-0.033,0.005,104.0,104.0,102.0,13.3,1505.2,328.2,-0.8,1.8,2470.582,13.28,0.036,154.1
2021-06-17T04:37:03,42.805,6.029,0.031,-0.031,0.011,104.0,104.0,102.0,13.4,1505.2,327.6,-0.7,1.8,2470.567,13.28,0.043,135.0
2021-06-17T04:40:03,42.805,6.029,0.037,-0.023,-0.017,104.0,104.0,101.0,13.4,1505.2,328.5,-0.8,1.8,2470.577,13.28,0.043,121.9
2021-06-17T04:43:03,42.805,6.029,0.042,-0.013,0.033,103.0,103.0,102.0,13.3,1505.2,328.4,-0.8,1.8,2470.602,13.28,0.043,107.2
2021-06-17T04:46:03,42.805,6.029,0.016,-0.03,0.025,103.0,104.0,102.0,13.3,1505.2,326.4,-0.7,1.8,2470.576,13.28,0.034,151.9
2021-06-17T04:49:03,42.805,6.029,0.024,-0.029,0.019,104.0,104.0,101.0,13.4,1505.2,325.5,-0.8,1.8,2470.62,13.28,0.037,140.4
2021-06-17T04:52:03,42.805,6.029,0.02,-0.023,-0.007,104.0,103.0,102.0,13.4,1505.2,326.4,-0.8,1.8,2470.569,13.28,0.03,139.0
2021-06-17T04:55:03,42.805,6.029,0.013,-0.01,0.007,103.0,103.0,102.0,13.4,1505.2,327.7,-0.7,1.8,2470.578,13.28,0.016,127.6
2021-06-17T04:58:03,42.805,6.029,0.032,-0.025,0.017,104.0,103.0,103.0,13.4,1505.2,324.3,-0.8,1.8,2470.55,13.28,0.04,128.0
2021-06-17T05:04:03,42.805,6.029,0.037,-0.023,0.004,104.0,103.0,102.0,13.4,1505.2,325.1,-0.7,1.8,2470.578,13.28,0.043,121.9
2021-06-17T05:07:03,42.805,6.029,0.02,-0.021,-0.011,104.0,103.0,102.0,13.4,1505.2,326.4,-0.8,1.8,2470.617,13.28,0.028,136.4
2021-06-17T05:10:03,42.805,6.029,0.006,-0.026,-0.017,103.0,103.0,102.0,13.3,1505.2,328.9,-0.8,1.8,2470.609,13.28,0.026,167.0
2021-06-17T05:13:03,42.805,6.029,0.003,-0.033,0.022,104.0,104.0,101.0,13.3,1505.2,328.9,-0.8,1.8,2470.546,13.28,0.033,174.8
2021-06-17T05:16:03,42.805,6.029,0.022,-0.034,-0.003,104.0,103.0,102.0,13.3,1505.2,328.2,-0.8,1.8,2470.581,13.28,0.04,147.1
2021-06-17T05:19:03,42.805,6.029,0.025,-0.016,0.004,103.0,103.0,102.0,13.3,1505.2,325.1,-0.8,1.8,2470.587,13.28,0.029,122.6
2021-06-17T05:22:03,42.805,6.029,0.008,-0.039,0.001,105.0,103.0,101.0,13.3,1505.2,329.7,-0.8,1.8,2470.56,13.28,0.039,168.4
2021-06-17T05:25:03,42.805,6.029,0.025,-0.002,-0.022,104.0,103.0,102.0,13.4,1505.2,326.5,-0.7,1.8,2470.571,13.28,0.025,94.6
2021-06-17T05:28:03,42.805,6.029,0.026,-0.039,0.027,104.0,104.0,101.0,13.3,1505.2,328.7,-0.7,1.8,2470.614,13.28,0.046,146.3
2021-06-17T05:31:03,42.805,6.029,0.024,-0.022,0.011,103.0,103.0,102.0,13.3,1505.2,328.3,-0.8,1.9,2470.566,13.28,0.032,132.5
2021-06-17T05:34:03,42.805,6.029,0.011,-0.033,0.008,103.0,104.0,102.0,13.4,1505.2,327.2,-0.7,1.8,2470.549,13.28,0.034,161.6
2021-06-17T05:37:03,42.805,6.029,0.019,-0.032,0.049,104.0,101.0,102.0,13.3,1505.2,327.2,-0.7,1.9,2470.569,13.28,0.037,149.3
2021-06-17T05:40:03,42.805,6.029,0.043,-0.02,0.009,104.0,104.0,102.0,13.4,1505.2,325.1,-0.7,1.8,2470.595,13.28,0.047,114.9
2021-06-17T05:43:03,42.805,6.029,0.027,-0.02,0.0,104.0,103.0,102.0,13.4,1505.2,324.4,-0.8,1.8,2470.54,13.28,0.033,126.5
2021-06-17T05:46:03,42.805,6.029,0.03,-0.034,0.005,104.0,103.0,102.0,13.4,1505.2,329.0,-0.7,1.9,2470.569,13.28,0.045,138.6
2021-06-17T05:49:03,42.805,6.029,0.01,-0.042,-0.016,103.0,103.0,101.0,13.4,1505.2,326.3,-0.7,1.8,2470.576,13.28,0.043,166.6
2021-06-17T05:52:03,42.805,6.029,0.031,-0.013,-0.015,104.0,103.0,102.0,13.3,1505.2,326.1,-0.7,1.9,2470.57,13.28,0.033,112.7
2021-06-17T05:55:03,42.805,6.029,0.019,-0.02,0.003,104.0,104.0,101.0,13.4,1505.2,326.4,-0.8,1.8,2470.56,13.28,0.027,136.5
2021-06-17T05:58:03,42.805,6.029,0.016,-0.013,0.001,103.0,103.0,102.0,13.4,1505.2,327.1,-0.7,1.8,2470.545,13.28,0.02,129.1
2021-06-17T06:04:03,42.805,6.029,0.015,-0.029,-0.007,103.0,103.0,102.0,13.4,1505.2,326.5,-0.7,1.8,2470.544,13.28,0.032,152.6
2021-06-17T06:07:03,42.805,6.029,0.018,-0.026,-0.007,104.0,102.0,102.0,13.4,1505.2,324.9,-0.7,1.8,2470.565,13.28,0.031,145.3
2021-06-17T06:10:03,42.805,6.029,0.03,-0.023,0.009,104.0,104.0,102.0,13.4,1505.2,328.5,-0.8,1.9,2470.553,13.28,0.037,127.5
2021-06-17T06:13:03,42.805,6.029,0.031,-0.039,-0.015,102.0,105.0,101.0,13.4,1505.2,325.3,-0.7,1.8,2470.594,13.28,0.049,141.5
2021-06-17T06:16:03,42.805,6.029,0.023,-0.044,-0.016,103.0,103.0,103.0,13.3,1505.2,328.5,-0.8,1.8,2470.559,13.28,0.049,152.4
2021-06-17T06:19:03,42.805,6.029,0.026,-0.016,0.012,104.0,103.0,103.0,13.4,1505.2,326.8,-0.8,1.8,2470.53,13.28,0.03,121.6
2021-06-17T06:22:03,42.805,6.029,0.037,-0.015,-0.031,103.0,103.0,102.0,13.4,1505.2,327.6,-0.8,1.8,2470.547,13.28,0.039,112.1
2021-06-17T06:25:03,42.805,6.029,0.029,-0.024,0.0,104.0,103.0,101.0,13.4,1505.2,324.6,-0.7,1.8,2470.568,13.28,0.037,129.6
2021-06-17T06:28:03,42.805,6.029,0.03,-0.036,0.003,102.0,103.0,102.0,13.4,1505.2,329.1,-0.7,1.8,2470.543,13.28,0.046,140.2
2021-06-17T06:31:03,42.805,6.029,0.024,-0.024,0.003,104.0,103.0,102.0,13.4,1505.2,326.5,-0.7,1.8,2470.531,13.28,0.033,135.0
2021-06-17T06:34:03,42.805,6.029,0.024,-0.036,-0.003,103.0,102.0,101.0,13.4,1505.2,327.8,-0.7,1.8,2470.502,13.28,0.043,146.3
2021-06-17T06:37:03,42.805,6.029,0.02,-0.012,0.031,103.0,104.0,101.0,13.3,1505.2,329.5,-0.8,1.8,2470.571,13.28,0.023,121.0
2021-06-17T06:40:03,42.805,6.029,0.021,-0.027,-0.03,103.0,103.0,102.0,13.3,1505.2,327.9,-0.7,1.8,2470.523,13.28,0.034,142.1
2021-06-17T06:43:03,42.805,6.029,0.022,-0.036,0.002,103.0,103.0,103.0,13.3,1505.2,329.6,-0.7,1.8,2470.553,13.28,0.042,148.6
2021-06-17T06:46:03,42.805,6.029,0.02,-0.027,0.015,103.0,103.0,103.0,13.4,1505.2,327.3,-0.7,1.9,2470.504,13.28,0.033,143.5
2021-06-17T06:49:03,42.805,6.029,0.011,-0.026,0.013,104.0,103.0,102.0,13.4,1505.2,326.5,-0.8,1.8,2470.515,13.28,0.028,157.1
2021-06-17T06:52:03,42.805,6.029,0.017,-0.018,-0.003,104.0,103.0,102.0,13.4,1505.2,327.2,-0.7,1.8,2470.521,13.28,0.024,136.6
2021-06-17T06:55:03,42.805,6.029,0.008,-0.03,0.009,103.0,103.0,102.0,13.4,1505.2,327.7,-0.7,1.8,2470.534,13.28,0.031,165.1
2021-06-17T06:58:03,42.805,6.029,0.014,-0.036,0.005,103.0,103.0,101.0,13.3,1505.2,325.9,-0.8,1.8,2470.519,13.28,0.038,158.8
2021-06-17T07:04:03,42.805,6.029,0.011,-0.013,0.003,103.0,103.0,101.0,13.4,1505.2,328.6,-0.8,1.8,2470.548,13.28,0.017,139.8
2021-06-17T07:07:03,42.805,6.029,0.006,-0.041,-0.006,104.0,103.0,102.0,13.4,1505.2,328.5,-0.7,1.8,2470.535,13.28,0.041,171.7
2021-06-17T07:10:03,42.805,6.029,0.038,-0.019,0.021,103.0,104.0,102.0,13.4,1505.2,329.6,-0.7,1.8,2470.547,13.28,0.042,116.6
2021-06-17T07:13:03,42.805,6.029,0.01,-0.005,0.005,104.0,104.0,101.0,13.3,1505.2,328.4,-0.8,1.8,2470.56,13.28,0.011,116.6
2021-06-17T07:16:03,42.805,6.029,0.03,-0.021,0.018,102.0,102.0,101.0,13.4,1505.2,329.3,-0.7,1.8,2470.517,13.28,0.036,125.0
2021-06-17T07:19:03,42.805,6.029,0.007,-0.038,0.015,103.0,104.0,101.0,13.4,1505.2,330.1,-0.7,1.8,2470.548,13.28,0.038,169.6
2021-06-17T07:22:03,42.805,6.029,0.012,-0.019,0.013,102.0,103.0,101.0,13.4,1505.2,328.2,-0.8,1.8,2470.549,13.28,0.022,147.7
2021-06-17T07:25:03,42.805,6.029,0.024,-0.018,-0.005,103.0,104.0,102.0,13.4,1505.2,328.1,-0.8,1.8,2470.5,13.28,0.03,126.9
2021-06-17T07:28:03,42.805,6.029,0.031,-0.031,-0.001,103.0,104.0,102.0,13.3,1505.2,328.1,-0.8,1.8,2470.517,13.28,0.043,135.0
2021-06-17T07:31:03,42.805,6.029,0.057,-0.03,0.023,103.0,103.0,102.0,13.4,1505.2,328.0,-0.8,1.8,2470.537,13.28,0.064,117.8
2021-06-17T07:34:03,42.805,6.029,0.029,-0.027,0.014,103.0,103.0,101.0,13.4,1505.2,327.1,-0.7,1.8,2470.508,13.28,0.039,133.0
2021-06-17T07:37:03,42.805,6.029,0.016,-0.025,-0.016,103.0,103.0,101.0,13.4,1505.2,326.5,-0.8,1.8,2470.525,13.28,0.029,147.4
2021-06-17T07:40:03,42.805,6.029,0.028,-0.02,-0.008,103.0,102.0,102.0,13.3,1505.2,326.9,-0.8,1.8,2470.515,13.28,0.034,125.5
2021-06-17T07:43:03,42.805,6.029,0.014,-0.009,-0.024,102.0,106.0,102.0,13.4,1505.2,328.0,-0.8,1.8,2470.54,13.28,0.016,122.7
2021-06-17T07:46:03,42.805,6.029,0.024,-0.032,0.007,103.0,103.0,102.0,13.3,1505.2,324.5,-0.7,1.8,2470.52,13.28,0.04,143.1
2021-06-17T07:49:03,42.805,6.029,0.035,-0.027,-0.009,103.0,103.0,101.0,13.4,1505.2,328.2,-0.8,1.8,2470.54,13.28,0.044,127.7
2021-06-17T07:52:03,42.805,6.029,0.042,-0.023,-0.002,103.0,104.0,101.0,13.4,1505.2,329.7,-0.8,1.8,2470.555,13.28,0.047,118.7
2021-06-17T07:55:03,42.805,6.029,0.027,-0.008,-0.001,103.0,104.0,102.0,13.4,1505.2,327.8,-0.8,1.8,2470.535,13.28,0.028,106.5
2021-06-17T07:58:03,42.805,6.029,0.023,-0.013,-0.009,104.0,103.0,102.0,13.3,1505.2,325.9,-0.8,1.8,2470.526,13.28,0.026,119.5
2021-06-17T08:04:03,42.805,6.029,0.016,-0.023,-0.021,104.0,104.0,102.0,13.4,1505.2,325.0,-0.8,1.8,2470.563,13.28,0.028,145.2
2021-06-17T08:07:03,42.805,6.029,0.022,-0.044,0.005,103.0,103.0,102.0,13.4,1505.2,327.0,-0.8,1.8,2470.54,13.28,0.049,153.4
2021-06-17T08:10:03,42.805,6.029,0.029,-0.018,-0.039,102.0,103.0,103.0,13.4,1505.2,329.3,-0.7,1.8,2470.584,13.28,0.034,121.8
2021-06-17T08:13:03,42.805,6.029,0.008,-0.008,0.012,104.0,102.0,101.0,13.4,1505.2,328.2,-0.7,1.8,2470.555,13.28,0.011,135.0
2021-06-17T08:16:03,42.805,6.029,0.037,-0.017,0.013,103.0,104.0,102.0,13.3,1505.2,329.3,-0.7,1.8,2470.581,13.28,0.04,114.7
2021-06-17T08:19:03,42.805,6.029,0.025,-0.032,0.002,104.0,103.0,100.0,13.4,1505.2,328.3,-0.8,1.8,2470.554,13.28,0.04,142.0
2021-06-17T08:22:03,42.805,6.029,0.023,-0.001,-0.015,104.0,104.0,102.0,13.4,1505.2,326.4,-0.8,1.7,2470.506,13.28,0.023,92.5
2021-06-17T08:25:03,42.805,6.029,0.023,-0.018,0.013,104.0,104.0,101.0,13.4,1505.2,327.2,-0.7,1.9,2470.562,13.28,0.029,128.0
2021-06-17T08:28:03,42.805,6.029,0.036,-0.037,-0.017,104.0,104.0,100.0,13.4,1505.2,324.6,-0.8,1.8,2470.573,13.28,0.051,135.8
2021-06-17T08:31:03,42.805,6.029,0.022,-0.011,-0.009,104.0,104.0,102.0,13.3,1505.2,324.8,-0.7,1.8,2470.535,13.28,0.024,116.6
2021-06-17T08:34:03,42.805,6.029,0.049,-0.025,0.009,104.0,103.0,102.0,13.4,1505.2,329.0,-0.8,1.8,2470.54,13.28,0.055,117.0
2021-06-17T08:37:03,42.805,6.029,0.023,-0.023,0.006,105.0,102.0,103.0,13.3,1505.2,328.0,-0.8,1.8,2470.526,13.28,0.032,135.0
2021-06-17T08:40:03,42.805,6.029,0.023,-0.017,-0.008,103.0,103.0,101.0,13.3,1505.2,327.9,-0.8,1.8,2470.511,13.28,0.028,126.5
2021-06-17T08:43:03,42.805,6.029,0.029,-0.014,-0.002,105.0,102.0,101.0,13.3,1505.2,325.9,-0.8,1.8,2470.554,13.28,0.032,115.8
2021-06-17T08:46:03,42.805,6.029,0.031,-0.022,-0.014,103.0,102.0,103.0,13.3,1505.2,327.7,-0.7,1.8,2470.52,13.28,0.038,125.4
2021-06-17T08:49:03,42.805,6.029,0.02,-0.037,-0.018,103.0,102.0,101.0,13.3,1505.2,326.5,-0.8,1.8,2470.542,13.28,0.042,151.6
2021-06-17T08:52:03,42.805,6.029,0.011,-0.017,0.001,102.0,103.0,102.0,13.4,1505.2,325.0,-0.7,1.8,2470.536,13.28,0.02,147.1
2021-06-17T08:55:03,42.805,6.029,0.027,-0.027,-0.023,103.0,103.0,102.0,13.4,1505.2,327.1,-0.8,1.8,2470.558,13.28,0.038,135.0
2021-06-17T08:58:03,42.805,6.029,0.011,-0.006,-0.026,105.0,104.0,101.0,13.3,1505.2,328.9,-0.8,1.8,2470.549,13.28,0.012,118.6
2021-06-17T09:04:03,42.805,6.029,0.02,-0.016,0.024,105.0,104.0,101.0,13.4,1505.2,326.4,-0.8,1.8,2470.596,13.28,0.025,128.7
2021-06-17T09:07:03,42.805,6.029,0.03,-0.022,-0.016,104.0,104.0,101.0,13.4,1505.2,328.1,-0.7,1.8,2470.586,13.28,0.037,126.3
2021-06-17T09:10:03,42.805,6.029,0.021,-0.021,-0.007,105.0,102.0,101.0,13.4,1505.2,325.3,-0.8,1.8,2470.519,13.28,0.029,135.0
2021-06-17T09:13:03,42.805,6.029,0.016,-0.022,-0.01,105.0,103.0,101.0,13.4,1505.2,324.3,-0.8,1.8,2470.566,13.28,0.027,144.0
2021-06-17T09:16:03,42.805,6.029,0.029,-0.018,0.013,105.0,103.0,102.0,13.4,1505.2,326.9,-0.7,1.8,2470.539,13.28,0.034,121.8
2021-06-17T09:19:03,42.805,6.029,0.027,-0.033,-0.011,105.0,103.0,102.0,13.4,1505.2,326.6,-0.7,1.8,2470.598,13.28,0.042,140.7
2021-06-17T09:22:03,42.805,6.029,0.015,-0.011,0.028,104.0,102.0,101.0,13.4,1505.2,328.1,-0.7,1.8,2470.566,13.28,0.018,126.3
2021-06-17T09:25:03,42.805,6.029,0.02,0.001,0.024,104.0,103.0,103.0,13.4,1505.2,326.1,-0.8,1.9,2470.551,13.28,0.02,87.1
2021-06-17T09:28:03,42.805,6.029,0.014,-0.007,0.01,104.0,101.0,102.0,13.4,1505.2,328.3,-0.7,1.8,2470.542,13.28,0.015,116.6
2021-06-17T09:31:03,42.805,6.029,0.048,-0.007,0.0,102.0,104.0,102.0,13.4,1505.2,326.2,-0.7,1.8,2470.593,13.28,0.048,98.3
2021-06-17T09:34:03,42.805,6.029,0.019,-0.022,0.007,103.0,103.0,102.0,13.4,1505.2,326.5,-0.8,1.8,2470.585,13.28,0.029,139.2
2021-06-17T09:37:03,42.805,6.029,0.034,-0.013,0.023,102.0,104.0,101.0,13.3,1505.2,324.4,-0.7,1.8,2470.589,13.28,0.036,110.9
2021-06-17T09:40:03,42.805,6.029,0.023,-0.014,-0.004,104.0,102.0,102.0,13.3,1505.2,326.0,-0.8,1.8,2470.575,13.28,0.026,121.3
2021-06-17T09:43:03,42.805,6.029,0.028,-0.006,-0.008,105.0,102.0,101.0,13.4,1505.2,329.0,-0.8,1.8,2470.554,13.28,0.028,102.1
2021-06-17T09:46:03,42.805,6.029,0.023,-0.031,0.001,102.0,102.0,102.0,13.4,1505.2,327.1,-0.7,1.8,2470.566,13.28,0.038,143.4
2021-06-17T09:49:03,42.805,6.029,0.036,-0.024,0.026,103.0,103.0,101.0,13.3,1505.2,327.9,-0.8,1.8,2470.596,13.28,0.043,123.7
2021-06-17T09:52:03,42.805,6.029,0.028,-0.007,0.036,103.0,104.0,101.0,13.4,1505.2,326.4,-0.8,1.8,2470.562,13.28,0.028,104.0
2021-06-17T09:55:03,42.805,6.029,-0.006,-0.021,-0.002,105.0,103.0,103.0,13.4,1505.2,327.0,-0.8,1.8,2470.555,13.28,0.021,195.9